WJA652 KBOS-CYYZ

Flight info

Callsign WJA652
Flight time 1h 29m
Altitude 34000
Route HYLND7 HYLND CAM Q822 GONZZ WOZEE LINNG3
Aircraft B738/M-V/N

Departure

Time 2026-05-06 00:13
Airport Boston Logan International Airport (KBOS)

Arrival

Time 2026-05-06 01:43
Airport Toronto Pearson International Airport (CYYZ)
Time Latitude Longitude Altitude Speed Heading
2026-05-05 23:44 42.36619 -71.01466 21 ft 0 kts 214°
2026-05-06 00:01 42.36628 -71.01459 23 ft 2 kts 208°
2026-05-06 00:02 42.36643 -71.01451 1 ft 2 kts 178°
2026-05-06 00:02 42.36658 -71.01456 32 ft 2 kts 143°
2026-05-06 00:02 42.36667 -71.01468 24 ft 0 kts 120°
2026-05-06 00:06 42.36665 -71.01444 23 ft 9 kts 88°
2026-05-06 00:06 42.36693 -71.01354 22 ft 10 kts 66°
2026-05-06 00:06 42.36728 -71.01275 24 ft 10 kts 32°
2026-05-06 00:07 42.36794 -71.01277 24 ft 10 kts 338°
2026-05-06 00:07 42.36858 -71.01262 22 ft 10 kts 41°
2026-05-06 00:07 42.36914 -71.01193 23 ft 12 kts 42°
2026-05-06 00:07 42.36988 -71.01113 23 ft 16 kts 32°
2026-05-06 00:08 42.37094 -71.01038 22 ft 17 kts 26°
2026-05-06 00:08 42.37188 -71.00976 20 ft 12 kts 25°
2026-05-06 00:08 42.37246 -71.00939 20 ft 0 kts 26°
2026-05-06 00:08 42.37249 -71.00937 20 ft 1 kts 27°
2026-05-06 00:09 42.37289 -71.00913 19 ft 17 kts 21°
2026-05-06 00:09 42.37417 -71.00850 20 ft 20 kts 20°
2026-05-06 00:09 42.37544 -71.00787 23 ft 19 kts 20°
2026-05-06 00:09 42.37668 -71.00727 25 ft 18 kts 20°
2026-05-06 00:10 42.37764 -71.00680 27 ft 13 kts 20°
2026-05-06 00:10 42.37830 -71.00635 27 ft 8 kts 46°
2026-05-06 00:10 42.37840 -71.00607 26 ft 0 kts 78°
2026-05-06 00:10 42.37840 -71.00588 29 ft 6 kts 95°
2026-05-06 00:11 42.37813 -71.00497 26 ft 12 kts 135°
2026-05-06 00:11 42.37735 -71.00497 24 ft 9 kts 199°
2026-05-06 00:11 42.37727 -71.00501 24 ft 0 kts 200°
2026-05-06 00:13 42.37638 -71.00544 27 ft 43 kts 199°
2026-05-06 00:13 42.37053 -71.00819 20 ft 131 kts 200°
2026-05-06 00:13 42.36017 -71.01366 394 ft 174 kts 203°
2026-05-06 00:13 42.34932 -71.01854 1840 ft 160 kts 185°
2026-05-06 00:14 42.33793 -71.01407 2919 ft 185 kts 168°
2026-05-06 00:14 42.32741 -71.00147 3564 ft 221 kts 134°
2026-05-06 00:14 42.31913 -70.98338 4193 ft 230 kts 131°
2026-05-06 00:14 42.31201 -70.96338 4723 ft 252 kts 110°
2026-05-06 00:15 42.31276 -70.93851 5065 ft 277 kts 80°
2026-05-06 00:15 42.31722 -70.91278 5018 ft 281 kts 79°
2026-05-06 00:15 42.32166 -70.88723 5021 ft 278 kts 80°
2026-05-06 00:15 42.32581 -70.86185 5011 ft 278 kts 81°
2026-05-06 00:16 42.32972 -70.83655 5022 ft 279 kts 81°
2026-05-06 00:16 42.33361 -70.81077 5032 ft 280 kts 81°
2026-05-06 00:16 42.33754 -70.78497 5169 ft 281 kts 78°
2026-05-06 00:16 42.34625 -70.76135 5829 ft 282 kts 46°
2026-05-06 00:17 42.36148 -70.74564 6665 ft 271 kts 18°
2026-05-06 00:17 42.37906 -70.73741 7405 ft 267 kts 10°
2026-05-06 00:17 42.39698 -70.73023 8098 ft 270 kts 10°
2026-05-06 00:17 42.41506 -70.72292 8811 ft 272 kts 11°
2026-05-06 00:18 42.43322 -70.71551 9531 ft 273 kts
2026-05-06 00:18 42.45169 -70.71442 10118 ft 265 kts 342°
2026-05-06 00:18 42.46916 -70.72320 10468 ft 273 kts 327°
2026-05-06 00:18 42.48649 -70.73481 11156 ft 280 kts 327°
2026-05-06 00:19 42.50403 -70.74649 11986 ft 282 kts 327°
2026-05-06 00:19 42.52181 -70.75820 12791 ft 286 kts 327°
2026-05-06 00:19 42.53742 -70.77405 13541 ft 279 kts 304°
2026-05-06 00:19 42.54884 -70.79512 14279 ft 278 kts 298°
2026-05-06 00:20 42.55955 -70.81715 14984 ft 282 kts 297°
2026-05-06 00:20 42.57057 -70.84031 15295 ft 302 kts 298°
2026-05-06 00:20 42.58216 -70.86465 15832 ft 311 kts 298°
2026-05-06 00:20 42.59393 -70.88913 16544 ft 315 kts 298°
2026-05-06 00:21 42.60614 -70.91437 17313 ft 318 kts 298°
2026-05-06 00:21 42.61822 -70.93928 18014 ft 322 kts 298°
2026-05-06 00:21 42.63060 -70.96479 18650 ft 325 kts 298°
2026-05-06 00:21 42.64310 -70.99052 19325 ft 326 kts 298°
2026-05-06 00:22 42.65569 -71.01645 19779 ft 336 kts 299°
2026-05-06 00:22 42.66895 -71.04385 19929 ft 353 kts 299°
2026-05-06 00:22 42.68260 -71.07203 20417 ft 360 kts 299°
2026-05-06 00:22 42.69640 -71.10046 21094 ft 360 kts 299°
2026-05-06 00:23 42.71019 -71.12887 21768 ft 361 kts 300°
2026-05-06 00:23 42.72404 -71.15749 22372 ft 363 kts 300°
2026-05-06 00:23 42.73798 -71.18634 22960 ft 366 kts 300°
2026-05-06 00:23 42.75203 -71.21544 23518 ft 369 kts 300°
2026-05-06 00:24 42.76615 -71.24471 23984 ft 371 kts 300°
2026-05-06 00:24 42.77910 -71.27523 24387 ft 373 kts 290°
2026-05-06 00:24 42.78576 -71.30966 24457 ft 383 kts 278°
2026-05-06 00:24 42.78986 -71.34562 24557 ft 394 kts 277°
2026-05-06 00:25 42.79381 -71.38326 24852 ft 399 kts 277°
2026-05-06 00:25 42.79764 -71.42036 25302 ft 400 kts 277°
2026-05-06 00:25 42.80158 -71.45799 25741 ft 402 kts 277°
2026-05-06 00:25 42.80560 -71.49574 26121 ft 404 kts 277°
2026-05-06 00:26 42.80970 -71.53373 26517 ft 406 kts 277°
2026-05-06 00:26 42.81384 -71.57183 26922 ft 408 kts 277°
2026-05-06 00:26 42.81802 -71.61015 27368 ft 408 kts 277°
2026-05-06 00:26 42.82220 -71.64839 27898 ft 406 kts 277°
2026-05-06 00:27 42.82494 -71.67352 28277 ft 405 kts 277°
2026-05-06 00:27 42.82892 -71.71001 28814 ft 403 kts 278°
2026-05-06 00:27 42.83296 -71.74724 29323 ft 401 kts 278°
2026-05-06 00:27 42.83703 -71.78491 29718 ft 404 kts 278°
2026-05-06 00:28 42.84112 -71.82288 29979 ft 408 kts 278°
2026-05-06 00:28 42.84525 -71.86131 30266 ft 409 kts 278°
2026-05-06 00:28 42.84935 -71.89960 30755 ft 406 kts 278°
2026-05-06 00:28 42.85338 -71.93738 31392 ft 399 kts 278°
2026-05-06 00:29 42.85732 -71.97447 31997 ft 393 kts 278°
2026-05-06 00:29 42.86118 -72.01086 32506 ft 390 kts 278°
2026-05-06 00:29 42.86503 -72.04727 32983 ft 387 kts 278°
2026-05-06 00:29 42.86885 -72.08353 33289 ft 388 kts 278°
2026-05-06 00:30 42.87271 -72.12015 33475 ft 391 kts 278°
2026-05-06 00:30 42.87656 -72.15688 33759 ft 392 kts 278°
2026-05-06 00:30 42.88039 -72.19365 33824 ft 393 kts 278°
2026-05-06 00:31 42.88803 -72.26729 33834 ft 391 kts 278°
2026-05-06 00:31 42.89558 -72.34048 33842 ft 388 kts 278°
2026-05-06 00:32 42.90302 -72.41304 33842 ft 386 kts 278°
2026-05-06 00:32 42.91042 -72.48562 33829 ft 385 kts 278°
2026-05-06 00:33 42.91773 -72.55787 33823 ft 384 kts 278°
2026-05-06 00:33 42.92494 -72.62952 33814 ft 383 kts 278°
2026-05-06 00:34 42.93213 -72.70144 33821 ft 383 kts 278°
2026-05-06 00:34 42.93929 -72.77355 33814 ft 383 kts 278°
2026-05-06 00:35 42.94640 -72.84565 33828 ft 384 kts 277°
2026-05-06 00:35 42.95350 -72.91802 33823 ft 385 kts 277°
2026-05-06 00:36 42.96055 -72.99045 33832 ft 385 kts 277°
2026-05-06 00:36 42.96755 -73.06287 33828 ft 384 kts 277°
2026-05-06 00:37 42.97450 -73.13528 33838 ft 384 kts 277°
2026-05-06 00:37 42.98141 -73.20769 33829 ft 384 kts 277°
2026-05-06 00:38 42.98822 -73.27948 33840 ft 383 kts 277°
2026-05-06 00:38 42.99482 -73.35165 33835 ft 382 kts 275°
2026-05-06 00:39 42.99736 -73.42415 33827 ft 382 kts 271°
2026-05-06 00:39 42.99855 -73.49674 33819 ft 382 kts 271°
2026-05-06 00:40 42.99994 -73.56876 33817 ft 378 kts 271°
2026-05-06 00:40 43.00151 -73.64051 33800 ft 377 kts 271°
2026-05-06 00:41 43.00313 -73.71211 33807 ft 378 kts 271°
2026-05-06 00:41 43.00471 -73.78356 33801 ft 379 kts 271°
2026-05-06 00:42 43.00627 -73.85581 33805 ft 381 kts 271°
2026-05-06 00:42 43.00779 -73.92838 33805 ft 382 kts 271°
2026-05-06 00:43 43.00926 -74.00121 33800 ft 383 kts 271°
2026-05-06 00:43 43.01069 -74.07413 33806 ft 384 kts 271°
2026-05-06 00:44 43.01207 -74.14672 33806 ft 384 kts 271°
2026-05-06 00:44 43.01342 -74.21971 33809 ft 384 kts 270°
2026-05-06 00:45 43.01525 -74.29273 33811 ft 384 kts 272°
2026-05-06 00:45 43.01871 -74.36559 33813 ft 384 kts 272°
2026-05-06 00:46 43.02226 -74.43834 33816 ft 383 kts 272°
2026-05-06 00:46 43.02559 -74.51093 33819 ft 382 kts 272°
2026-05-06 00:47 43.02878 -74.58350 33817 ft 382 kts 272°
2026-05-06 00:47 43.03188 -74.65557 33814 ft 382 kts 272°
2026-05-06 00:48 43.03495 -74.72808 33821 ft 382 kts 272°
2026-05-06 00:48 43.03797 -74.80044 33823 ft 382 kts 272°
2026-05-06 00:49 43.04094 -74.87291 33819 ft 382 kts 272°
2026-05-06 00:49 43.04388 -74.94532 33830 ft 381 kts 272°
2026-05-06 00:50 43.04676 -75.01780 33820 ft 381 kts 271°
2026-05-06 00:50 43.04960 -75.09023 33842 ft 381 kts 271°
2026-05-06 00:51 43.05239 -75.16274 33842 ft 381 kts 271°
2026-05-06 00:51 43.05513 -75.23469 33850 ft 381 kts 271°
2026-05-06 00:52 43.05781 -75.30712 33857 ft 382 kts 271°
2026-05-06 00:52 43.05995 -75.37961 33857 ft 382 kts 271°
2026-05-06 00:53 43.06190 -75.45212 33858 ft 381 kts 270°
2026-05-06 00:53 43.06384 -75.52459 33861 ft 381 kts 270°
2026-05-06 00:54 43.06577 -75.59712 33855 ft 381 kts 270°
2026-05-06 00:54 43.06766 -75.66959 33862 ft 381 kts 270°
2026-05-06 00:55 43.06951 -75.74203 33864 ft 380 kts 270°
2026-05-06 00:55 43.07131 -75.81442 33867 ft 380 kts 270°
2026-05-06 00:56 43.07305 -75.88618 33871 ft 379 kts 270°
2026-05-06 00:56 43.07476 -75.95838 33876 ft 378 kts 270°
2026-05-06 00:57 43.07642 -76.03034 33876 ft 378 kts 270°
2026-05-06 00:57 43.07790 -76.09638 33882 ft 377 kts 270°
2026-05-06 00:58 43.07946 -76.16810 33882 ft 376 kts 270°
2026-05-06 00:58 43.08098 -76.23963 33878 ft 376 kts 270°
2026-05-06 00:59 43.08245 -76.31111 33872 ft 375 kts 270°
2026-05-06 00:59 43.08387 -76.38253 33875 ft 375 kts 270°
2026-05-06 01:00 43.08525 -76.45384 33876 ft 375 kts 270°
2026-05-06 01:00 43.08659 -76.52519 33882 ft 375 kts 270°
2026-05-06 01:01 43.08788 -76.59654 33892 ft 375 kts 269°
2026-05-06 01:01 43.08913 -76.66796 33880 ft 376 kts 269°
2026-05-06 01:02 43.08708 -76.73929 33885 ft 375 kts 264°
2026-05-06 01:02 43.08185 -76.81033 33889 ft 375 kts 263°
2026-05-06 01:03 43.07653 -76.88146 33895 ft 376 kts 263°
2026-05-06 01:03 43.07146 -76.95221 33901 ft 376 kts 263°
2026-05-06 01:04 43.06645 -77.02343 33907 ft 376 kts 264°
2026-05-06 01:04 43.06145 -77.09471 33908 ft 377 kts 263°
2026-05-06 01:05 43.05639 -77.16630 33905 ft 377 kts 263°
2026-05-06 01:05 43.05132 -77.23744 33882 ft 371 kts 263°
2026-05-06 01:06 43.04637 -77.30635 33892 ft 364 kts 263°
2026-05-06 01:06 43.04386 -77.34096 33562 ft 370 kts 263°
2026-05-06 01:06 43.04129 -77.37626 33027 ft 376 kts 263°
2026-05-06 01:06 43.03868 -77.41200 32492 ft 377 kts 263°
2026-05-06 01:07 43.03608 -77.44744 31979 ft 373 kts 262°
2026-05-06 01:07 43.03350 -77.48262 31467 ft 370 kts 262°
2026-05-06 01:07 43.03092 -77.51752 30967 ft 369 kts 262°
2026-05-06 01:07 43.02833 -77.55241 30475 ft 369 kts 262°
2026-05-06 01:08 43.02570 -77.58759 30001 ft 375 kts 262°
2026-05-06 01:08 43.02302 -77.62316 29444 ft 376 kts 261°
2026-05-06 01:08 43.02038 -77.65842 28889 ft 371 kts 261°
2026-05-06 01:08 43.01776 -77.69324 28347 ft 366 kts 261°
2026-05-06 01:09 43.01516 -77.72766 27811 ft 362 kts 261°
2026-05-06 01:09 43.01260 -77.76128 27300 ft 359 kts 261°
2026-05-06 01:09 43.01003 -77.79498 26830 ft 355 kts 261°
2026-05-06 01:09 43.00748 -77.82825 26457 ft 350 kts 261°
2026-05-06 01:10 43.00493 -77.86136 26087 ft 352 kts 261°
2026-05-06 01:10 43.00233 -77.89485 25721 ft 354 kts 260°
2026-05-06 01:10 42.99971 -77.92838 25355 ft 354 kts 260°
2026-05-06 01:10 42.99711 -77.96174 24884 ft 354 kts 260°
2026-05-06 01:11 42.99449 -77.99532 24411 ft 355 kts 260°
2026-05-06 01:11 42.99189 -78.02835 23958 ft 353 kts 260°
2026-05-06 01:11 42.98929 -78.06147 23497 ft 349 kts 260°
2026-05-06 01:11 42.98671 -78.09428 22956 ft 346 kts 259°
2026-05-06 01:12 42.98412 -78.12691 22426 ft 344 kts 259°
2026-05-06 01:12 42.98153 -78.15936 21907 ft 342 kts 259°
2026-05-06 01:12 42.97895 -78.19158 21392 ft 341 kts 259°
2026-05-06 01:12 42.97637 -78.22370 20886 ft 339 kts 259°
2026-05-06 01:13 42.97380 -78.25564 20393 ft 337 kts 259°
2026-05-06 01:13 42.97125 -78.28724 19893 ft 331 kts 259°
2026-05-06 01:13 42.96879 -78.31781 19410 ft 324 kts 259°
2026-05-06 01:13 42.96634 -78.34808 18937 ft 318 kts 259°
2026-05-06 01:14 42.96154 -78.40683 18088 ft 304 kts 259°
2026-05-06 01:14 42.95923 -78.43509 17737 ft 295 kts 259°
2026-05-06 01:14 42.95699 -78.46236 17516 ft 284 kts 259°
2026-05-06 01:15 42.95554 -78.47996 17420 ft 280 kts 259°
2026-05-06 01:15 42.95337 -78.50607 17311 ft 275 kts 259°
2026-05-06 01:15 42.95119 -78.53205 17153 ft 276 kts 259°
2026-05-06 01:15 42.94897 -78.55838 17049 ft 281 kts 259°
2026-05-06 01:16 42.94676 -78.58481 17002 ft 279 kts 259°
2026-05-06 01:16 42.94457 -78.61109 16995 ft 279 kts 259°
2026-05-06 01:16 42.94236 -78.63736 16996 ft 279 kts 259°
2026-05-06 01:16 42.94025 -78.66245 16989 ft 279 kts 259°
2026-05-06 01:17 42.93803 -78.68873 16997 ft 279 kts 259°
2026-05-06 01:17 42.93626 -78.71515 16988 ft 282 kts 266°
2026-05-06 01:17 42.94005 -78.74176 17002 ft 292 kts 282°
2026-05-06 01:17 42.94993 -78.76658 17004 ft 304 kts 298°
2026-05-06 01:18 42.96302 -78.78917 16999 ft 307 kts 301°
2026-05-06 01:18 42.97697 -78.81188 16997 ft 308 kts 301°
2026-05-06 01:18 42.99061 -78.83391 16995 ft 308 kts 301°
2026-05-06 01:18 43.00438 -78.85628 17005 ft 307 kts 301°
2026-05-06 01:19 43.01805 -78.87867 16989 ft 307 kts 301°
2026-05-06 01:19 43.03165 -78.90110 16993 ft 306 kts 301°
2026-05-06 01:19 43.04521 -78.92356 16988 ft 307 kts 300°
2026-05-06 01:19 43.05879 -78.94613 16976 ft 306 kts 300°
2026-05-06 01:20 43.07246 -78.96890 16436 ft 309 kts 300°
2026-05-06 01:20 43.08595 -78.99130 15930 ft 301 kts 300°
2026-05-06 01:20 43.09909 -79.01316 15441 ft 295 kts 300°
2026-05-06 01:20 43.11205 -79.03478 14958 ft 293 kts 300°
2026-05-06 01:21 43.12493 -79.05631 14478 ft 292 kts 300°
2026-05-06 01:21 43.13758 -79.07747 13991 ft 289 kts 300°
2026-05-06 01:21 43.15041 -79.09889 13515 ft 285 kts 300°
2026-05-06 01:21 43.16276 -79.11950 13139 ft 281 kts 300°
2026-05-06 01:22 43.17511 -79.14017 12875 ft 279 kts 300°
2026-05-06 01:22 43.18733 -79.16065 12625 ft 276 kts 299°
2026-05-06 01:22 43.19945 -79.18096 12473 ft 274 kts 299°
2026-05-06 01:22 43.21151 -79.20123 12328 ft 275 kts 299°
2026-05-06 01:23 43.22362 -79.22159 12174 ft 276 kts 300°
2026-05-06 01:23 43.23588 -79.24223 12052 ft 279 kts 300°
2026-05-06 01:23 43.24809 -79.26273 11999 ft 276 kts 300°
2026-05-06 01:23 43.26019 -79.28306 11994 ft 275 kts 300°
2026-05-06 01:24 43.27231 -79.30347 11989 ft 276 kts 300°
2026-05-06 01:24 43.28445 -79.32393 11800 ft 279 kts 300°
2026-05-06 01:24 43.29674 -79.34451 11279 ft 277 kts 302°
2026-05-06 01:24 43.31205 -79.36126 10771 ft 290 kts 322°
2026-05-06 01:25 43.32997 -79.37293 10303 ft 284 kts 325°
2026-05-06 01:25 43.34773 -79.38396 9810 ft 276 kts 325°
2026-05-06 01:25 43.36492 -79.39473 9363 ft 266 kts 325°
2026-05-06 01:25 43.38141 -79.40514 8994 ft 255 kts 324°
2026-05-06 01:26 43.39709 -79.41512 8723 ft 242 kts 324°
2026-05-06 01:26 43.41195 -79.42462 8507 ft 230 kts 324°
2026-05-06 01:26 43.42626 -79.43382 8345 ft 225 kts 323°
2026-05-06 01:26 43.44035 -79.44296 8196 ft 225 kts 323°
2026-05-06 01:27 43.45458 -79.45221 8073 ft 228 kts 324°
2026-05-06 01:27 43.46898 -79.46154 7999 ft 229 kts 324°
2026-05-06 01:27 43.48343 -79.47087 7976 ft 229 kts 324°
2026-05-06 01:27 43.49781 -79.48015 7976 ft 229 kts 324°
2026-05-06 01:28 43.51227 -79.48948 7976 ft 229 kts 324°
2026-05-06 01:28 43.52670 -79.49880 7976 ft 229 kts 325°
2026-05-06 01:28 43.54111 -79.50810 7974 ft 229 kts 324°
2026-05-06 01:28 43.55546 -79.51734 7973 ft 230 kts 325°
2026-05-06 01:29 43.56997 -79.52665 7968 ft 230 kts 325°
2026-05-06 01:29 43.58493 -79.53473 7952 ft 240 kts 341°
2026-05-06 01:29 43.60199 -79.53225 7971 ft 261 kts 17°
2026-05-06 01:29 43.61674 -79.51677 7990 ft 270 kts 42°
2026-05-06 01:30 43.62965 -79.49770 7981 ft 273 kts 44°
2026-05-06 01:30 43.64246 -79.47834 7978 ft 274 kts 44°
2026-05-06 01:30 43.65537 -79.45892 7974 ft 275 kts 44°
2026-05-06 01:30 43.66840 -79.43954 7972 ft 275 kts 43°
2026-05-06 01:31 43.68151 -79.42021 7969 ft 275 kts 43°
2026-05-06 01:31 43.69464 -79.40096 7973 ft 275 kts 43°
2026-05-06 01:31 43.70776 -79.38176 7973 ft 275 kts 43°
2026-05-06 01:31 43.72087 -79.36258 7967 ft 274 kts 43°
2026-05-06 01:32 43.73396 -79.34342 7978 ft 273 kts 43°
2026-05-06 01:32 43.74703 -79.32428 7975 ft 274 kts 43°
2026-05-06 01:32 43.76013 -79.30509 7970 ft 274 kts 43°
2026-05-06 01:32 43.77302 -79.28618 7946 ft 274 kts 43°
2026-05-06 01:33 43.78637 -79.26663 7456 ft 281 kts 43°
2026-05-06 01:33 43.79969 -79.24706 6963 ft 277 kts 43°
2026-05-06 01:33 43.81280 -79.22776 6476 ft 273 kts 43°
2026-05-06 01:33 43.82569 -79.20880 5971 ft 268 kts 43°
2026-05-06 01:34 43.83930 -79.19202 5485 ft 255 kts 24°
2026-05-06 01:34 43.85565 -79.18612 5105 ft 235 kts 355°
2026-05-06 01:34 43.87102 -79.19075 4729 ft 221 kts 333°
2026-05-06 01:34 43.88317 -79.20271 4326 ft 211 kts 311°
2026-05-06 01:35 43.89071 -79.21941 3933 ft 205 kts 290°
2026-05-06 01:35 43.89303 -79.23626 3691 ft 195 kts 271°
2026-05-06 01:35 43.89150 -79.25468 3422 ft 189 kts 255°
2026-05-06 01:35 43.88613 -79.27075 3251 ft 183 kts 236°
2026-05-06 01:36 43.87840 -79.28477 3107 ft 184 kts 232°
2026-05-06 01:36 43.87033 -79.29860 3010 ft 185 kts 231°
2026-05-06 01:36 43.86228 -79.31231 2972 ft 181 kts 231°
2026-05-06 01:36 43.85431 -79.32588 2976 ft 182 kts 231°
2026-05-06 01:37 43.84627 -79.33958 2976 ft 183 kts 231°
2026-05-06 01:37 43.83831 -79.35312 2962 ft 177 kts 231°
2026-05-06 01:37 43.83084 -79.36586 2958 ft 165 kts 231°
2026-05-06 01:37 43.82368 -79.37803 2955 ft 161 kts 231°
2026-05-06 01:38 43.81660 -79.39008 2968 ft 163 kts 231°
2026-05-06 01:38 43.80942 -79.40227 2982 ft 164 kts 231°
2026-05-06 01:38 43.80220 -79.41453 2975 ft 165 kts 231°
2026-05-06 01:38 43.79510 -79.42694 2975 ft 165 kts 230°
2026-05-06 01:39 43.78759 -79.43891 2973 ft 165 kts 228°
2026-05-06 01:39 43.77986 -79.45047 2968 ft 165 kts 227°
2026-05-06 01:39 43.77203 -79.46195 2974 ft 164 kts 227°
2026-05-06 01:39 43.76416 -79.47341 2955 ft 164 kts 227°
2026-05-06 01:40 43.75644 -79.48463 2830 ft 155 kts 227°
2026-05-06 01:40 43.74922 -79.49511 2594 ft 148 kts 226°
2026-05-06 01:40 43.74231 -79.50517 2424 ft 151 kts 226°
2026-05-06 01:40 43.73503 -79.51575 2216 ft 152 kts 226°
2026-05-06 01:41 43.72785 -79.52619 2019 ft 143 kts 226°
2026-05-06 01:41 43.72047 -79.53692 1793 ft 143 kts 226°
2026-05-06 01:41 43.71372 -79.54674 1594 ft 140 kts 226°
2026-05-06 01:41 43.70700 -79.55651 1394 ft 140 kts 226°
2026-05-06 01:42 43.70025 -79.56633 1199 ft 141 kts 227°
2026-05-06 01:42 43.69346 -79.57622 1006 ft 142 kts 227°
2026-05-06 01:42 43.68668 -79.58609 817 ft 142 kts 227°
2026-05-06 01:42 43.67987 -79.59600 633 ft 142 kts 228°
2026-05-06 01:43 43.67342 -79.60544 555 ft 122 kts 225°
2026-05-06 01:43 43.66860 -79.61248 550 ft 79 kts 227°
2026-05-06 01:43 43.66590 -79.61652 541 ft 28 kts 235°
2026-05-06 01:43 43.66553 -79.61790 541 ft 13 kts 256°
2026-05-06 01:44 43.66544 -79.61853 540 ft 0 kts 259°